Location: Bud?ice
(49.7209°N, 15.1819°E)
Time: 09:38:48
(UTC+00:00)

Daily predictions for brighter satellites

Satellite Brightness Start Highest point End
(mag) Time Altitude Azimuth Time Altitude Azimuth Time Altitude Azimuth
STARLINK-1203 3.6 19:34:55 10° SW 19:39:06 71° SSE 19:43:17 10° ENE
STARLINK-1216 3.6 19:35:18 10° SW 19:39:25 70° SSE 19:43:33 10° ENE
ISS -2.1 19:37:54 10° W 19:40:42 24° SW 19:43:28 10° SSE
CZ-2C R/B 3.2 19:36:33 10° N 19:42:09 70° WNW 19:47:44 10° SSW
STARLINK-1205 4.3 19:38:06 10° W 19:42:12 60° N 19:46:19 10° ENE
STARLINK-1130 (DARKSAT) 3.7 19:38:56 10° WNW 19:43:06 88° NNE 19:47:16 10° ESE
STARLINK-1237 3.6 19:40:15 10° WSW 19:44:23 75° SSE 19:48:32 10° ENE
STARLINK-1218 4.3 19:43:07 10° W 19:47:13 58° N 19:51:20 10° ENE
STARLINK-1084 3.6 19:43:56 10° WNW 19:48:06 89° SSW 19:52:15 10° ESE
Cosmos 1674 Rocket 3.9 19:44:00 10° SSE 19:48:13 49° E 19:52:29 10° NNE
Meteor 2-4 Rocket 3.9 19:43:03 10° SSW 19:48:24 75° WNW 19:53:48 10° N
STARLINK-1202 3.6 19:45:13 10° WSW 19:49:22 79° SSE 19:53:31 10° ENE
NOSS 2-2 (E) 4.0 19:47:05 10° S 19:50:13 28° ESE 19:53:40 10° ENE
Cosmos 1378 Rocket 4.1 19:47:03 10° SSE 19:51:10 40° E 19:55:17 10° NNE
EXPRESS MD2 3.9 19:48:21 10° SSW 19:51:13 35° SE 19:56:14 10° ENE
STARLINK-1254 4.3 19:48:07 10° W 19:52:12 57° N 19:56:19 10° ENE
Cosmos 1833 Rocket 3.9 19:47:38 10° NW 19:52:46 37° WSW 19:57:53 10° S
STARLINK-1098 3.6 19:48:54 10° WNW 19:53:04 85° SSW 19:57:13 10° ESE
Cosmos 2297 4.0 19:49:41 10° S 19:55:07 49° ESE 20:00:37 10° NE
Cosmos 1943 Rocket 3.3 19:51:25 10° SSE 19:55:43 24° ESE 20:00:05 10° NE
STARLINK-1231 4.4 19:53:06 10° W 19:57:11 56° N 20:01:17 10° ENE
STARLINK-1123 3.6 19:53:52 10° WNW 19:58:02 81° SSW 20:02:10 10° ESE
STARLINK-1246 3.6 19:55:11 10° WSW 19:59:20 87° SSE 20:03:30 10° ENE
Cosmos 2082 Rocket 2.9 19:54:00 10° NW 19:59:34 53° WSW 20:05:04 10° S
IGS 5A 3.5 19:55:57 10° SSE 20:00:06 80° ENE 20:04:17 10° NNW
Cosmos 1452 Rocket 3.7 19:56:28 10° SSW 20:01:46 80° WNW 20:07:06 10° NNE
Cosmos 332 Rocket 3.8 19:57:06 10° SSW 20:02:01 85° ESE 20:06:57 10° NNE
BREEZE-M DEB 3.7 20:00:07 10° S 20:02:10 21° SE 20:05:44 10° E
Intercosmos 24 4.3 19:58:40 10° NNW 20:02:10 53° W 20:05:51 10° S
STARLINK-1232 4.4 19:58:07 10° W 20:02:12 55° N 20:06:18 10° ENE
STARLINK-1097 3.6 19:58:53 10° WNW 20:03:02 77° SSW 20:07:07 10° ESE
Landsat 7 3.8 19:58:20 10° SSE 20:03:06 86° ENE 20:07:54 10° NNW
STARLINK-1224 3.6 20:00:09 10° WSW 20:04:19 89° N 20:08:28 10° ENE
Meteor 1-23 Rocket 4.3 20:00:52 10° S 20:06:27 61° E 20:12:01 10° NNE
STARLINK-1208 4.4 20:03:06 10° W 20:07:11 54° N 20:11:16 10° ENE
STARLINK-1099 3.6 20:03:51 10° WNW 20:08:00 72° SSW 20:11:54 11° ESE
Cosmos 1461 2.9 20:04:20 10° SSW 20:08:28 72° SE 20:12:51 10° NE
STARLINK-1225 3.7 20:05:09 10° WSW 20:09:18 86° NNW 20:13:28 10° ENE
SAR-Lupe-2 3.5 20:06:51 10° NNE 20:10:28 71° ESE 20:14:02 10° S
Cosmos 1975 Rocket 4.4 20:07:29 12° SE 20:10:45 25° E 20:14:20 10° NNE
Cosmos 2369 Rocket 3.4 20:07:21 10° SSE 20:11:38 23° ESE 20:15:59 10° NE
STARLINK-1271 4.4 20:08:08 10° W 20:12:12 54° N 20:16:17 10° ENE
STARLINK-1104 3.7 20:08:50 10° WNW 20:12:57 68° SSW 20:16:40 13° SE
STARLINK-1230 3.7 20:10:07 10° WSW 20:14:16 82° NNW 20:18:26 10° ENE
STARLINK-1212 3.9 20:11:17 10° WNW 20:14:18 46° N 20:17:20 10° E
NOSS 2-2 (C) 3.6 20:11:23 10° SSW 20:14:42 38° ESE 20:18:24 10° NE
STARLINK-1105 3.9 20:11:45 10° WNW 20:14:46 46° N 20:17:47 10° E
CZ-4B DEB 4.3 20:11:56 12° SSE 20:15:00 80° ENE 20:18:22 10° N
STARLINK-1247 3.9 20:12:38 10° WNW 20:15:40 46° N 20:18:42 10° E
STARLINK-1227 3.9 20:13:07 10° WNW 20:16:09 46° N 20:19:10 10° E
STARLINK-1226 3.9 20:13:59 10° WNW 20:17:01 46° N 20:20:03 10° E
STARLINK-1154 4.4 20:13:08 10° W 20:17:12 53° N 20:21:17 10° ENE
STARLINK-1215 3.9 20:14:53 10° WNW 20:17:55 46° N 20:20:58 10° E
STARLINK-1144 3.7 20:13:49 10° WNW 20:17:56 64° SSW 20:21:28 14° SE
ATLAS 2AS CENTAUR R/B 4.2 20:13:11 10° SSE 20:18:49 22° ESE 20:24:36 10° ENE
SPOT 5 3.2 20:14:18 12° SSE 20:19:11 67° ENE 20:24:32 10° N
STARLINK-1243 3.8 20:15:07 10° WSW 20:19:16 79° NNW 20:23:26 10° ENE
STARLINK-1217 3.8 20:16:42 10° WNW 20:19:45 47° N 20:22:47 10° E
NOSS 3-2 (A) 4.1 20:12:37 10° NW 20:19:59 79° NE 20:27:48 12° SE
STARLINK-1229 3.8 20:17:37 10° WNW 20:20:39 47° N 20:23:41 10° E
STARLINK-1270 3.8 20:18:30 10° WNW 20:21:33 47° N 20:24:36 10° E
OPS 6432 4.5 20:18:50 10° NW 20:21:55 74° NE 20:24:59 15° SE
STARLINK-1197 4.4 20:18:06 10° W 20:22:11 53° N 20:26:15 10° ENE
STARLINK-1103 3.8 20:18:48 10° WNW 20:22:54 60° SSW 20:26:14 15° SE
STARLINK-1189 3.8 20:20:18 10° WNW 20:23:21 48° N 20:26:24 10° E
STARLINK-1236 3.8 20:20:05 10° WSW 20:24:15 76° NNW 20:28:24 10° ENE
STARLINK-1188 3.8 20:21:13 10° WNW 20:24:16 48° N 20:27:19 10° E
ERS-1 Rocket 3.0 20:19:40 12° SSE 20:24:24 83° ENE 20:29:28 10° NNW
STARLINK-1187 3.7 20:22:18 10° WNW 20:25:21 50° N 20:28:22 10° E
STARLINK-1191 3.8 20:23:40 10° WNW 20:26:42 48° N 20:29:43 10° E
STARLINK-1198 4.4 20:23:06 10° W 20:27:11 53° N 20:31:15 10° ENE
STARLINK-1221 3.7 20:24:38 10° WNW 20:27:39 49° N 20:30:41 10° E
STARLINK-1101 3.8 20:23:47 10° WNW 20:27:52 57° SSW 20:31:01 16° SE
STARLINK-1222 3.7 20:25:28 10° WNW 20:28:31 49° N 20:31:32 10° E
Okean 2 4.1 20:25:56 15° SSE 20:29:00 38° E 20:32:52 10° NNE
STARLINK-1214 3.7 20:26:21 10° WNW 20:29:24 49° N 20:32:27 10° E
Cosmos 1066 Rocket 4.1 20:24:10 10° S 20:29:33 87° ESE 20:34:57 10° NNE
USA 245 4.0 20:28:13 10° SSW 20:30:52 29° WSW 20:33:10 10° NW
USA 238 DEB 3.9 20:24:41 10° NW 20:31:54 87° NE 20:38:25 14° SE
USA 238 3.9 20:24:47 10° NW 20:32:01 86° NE 20:38:32 14° SE
STARLINK-1199 4.4 20:28:07 10° WNW 20:32:11 53° N 20:36:16 10° ENE
STARLINK-1102 3.9 20:28:47 10° WNW 20:32:50 53° SSW 20:35:48 17° SE
Cosmos 968 Rocket 4.4 20:28:33 10° NNW 20:33:23 38° ENE 20:37:31 13° ESE
Okean 1 Rocket 3.4 20:29:16 10° NNW 20:33:43 66° W 20:37:54 11° S
STARLINK-1228 3.6 20:30:26 10° WNW 20:33:54 60° NNE 20:37:22 10° E
Cosmos 1805 3.2 20:30:06 10° N 20:34:03 82° E 20:37:07 16° SSE
Cosmos 1470 4.3 20:30:54 10° NNE 20:34:07 24° ENE 20:36:30 14° ESE
STARLINK-1269 3.9 20:30:05 10° WSW 20:34:13 70° NNW 20:38:22 10° ENE
Resurs 01 Rocket 3.8 20:31:18 10° SW 20:34:42 21° W 20:38:07 10° NW
Cosmos 2278 Rocket 4.0 20:29:56 10° WSW 20:35:07 35° NW 20:40:19 10° NNE
Nadezhda 4 Rocket 4.0 20:29:51 10° S 20:35:59 89° E 20:42:09 10° N
STARLINK-1210 4.4 20:33:06 10° WNW 20:37:11 53° N 20:41:15 10° ENE
STARLINK-1235 3.5 20:34:04 10° WNW 20:37:16 58° NNE 20:40:28 10° E
STARLINK-1111 4.0 20:33:46 10° WNW 20:37:47 50° SSW 20:40:34 18° SE
STARLINK-1200 4.0 20:35:04 10° W 20:39:12 68° NNW 20:43:20 10° ENE
Cosmos 1455 Rocket 3.6 20:35:10 10° N 20:39:22 45° ENE 20:42:18 18° SE
STARLINK-1219 4.4 20:38:06 10° WNW 20:42:10 53° N 20:46:15 10° E
STARLINK-1073 4.1 20:38:46 10° WNW 20:42:45 46° SW 20:45:22 19° SSE
SL-8 R/B 4.2 20:38:28 10° W 20:43:01 44° SSW 20:46:16 18° SE
STARLINK-1192 4.0 20:40:04 10° W 20:44:12 66° NNW 20:48:20 10° ENE
ATLAS CENTAUR R/B 3.6 20:45:48 10° NNW 20:46:25 11° N 20:47:04 10° NNE
STARLINK-1211 4.4 20:43:07 10° WNW 20:47:11 53° N 20:51:16 10° E
STARLINK-1121 4.2 20:43:46 10° WNW 20:47:42 43° SW 20:50:08 20° SSE
ATLAS 3B CENTAUR R/B 4.4 20:41:01 10° SW 20:47:54 17° SSW 20:50:57 14° S
Terra 1.8 20:44:22 17° SSE 20:48:05 86° ENE 20:52:52 10° NNW
SL-4 R/B 3.2 20:44:34 10° SSW 20:48:36 28° SE 20:52:42 10° E
Cosmos 1110 Rocket 4.1 20:43:30 10° SSW 20:48:41 79° WNW 20:53:54 10° NNE
STARLINK-1244 4.1 20:45:04 10° W 20:49:11 64° NNW 20:53:19 10° ENE
SPOT 1/Viking Rocket 4.4 20:45:22 10° S 20:50:19 46° W 20:55:17 10° NNW
Cosmos 1842 3.6 20:48:52 20° SSE 20:51:17 48° E 20:55:04 10° NNE
Abrixas rocket 3.6 20:49:05 10° WSW 20:51:18 19° SSW 20:51:50 18° SSW
CARTOSAT-1 4.0 20:47:49 14° S 20:51:24 58° W 20:55:41 10° NNW
STARLINK-1245 4.4 20:48:06 10° WNW 20:52:11 53° N 20:56:15 10° E
STARLINK-1106 4.3 20:48:47 10° WNW 20:52:41 40° SW 20:54:56 21° SSE
STARLINK-1138 4.2 20:50:04 10° W 20:54:11 62° NNW 20:58:18 10° ENE
STARLINK-1234 3.2 20:51:49 10° WNW 20:55:06 71° NNE 20:57:44 15° ESE
STARLINK-1233 4.4 20:53:04 10° WNW 20:57:09 54° N 21:01:14 10° E
STARLINK-1112 4.4 20:53:45 10° WNW 20:57:36 38° SW 20:59:42 22° SSE
STARLINK-1143 4.2 20:55:02 10° W 20:59:09 60° NNW 21:03:16 10° ENE
STARLINK-1209 3.1 20:57:47 10° WNW 21:01:05 78° NNE 21:03:26 18° ESE
STARLINK-1204 4.3 20:58:04 10° WNW 21:02:09 55° N 21:06:14 10° E
STARLINK-1128 4.5 20:58:46 10° WNW 21:02:33 35° SW 21:04:28 23° S
STARLINK-1241 4.2 21:00:05 10° W 21:04:11 59° N 21:08:18 10° ENE
Cosmos 1331 Rocket 4.4 21:00:24 10° SW 21:05:31 64° WNW 21:10:42 10° NNE
Cosmos 1733 3.5 21:03:20 10° NNW 21:07:07 62° W 21:09:32 21° S
STARLINK-1238 4.3 21:03:05 10° WNW 21:07:10 55° N 21:11:16 10° E
STARLINK-1239 4.3 21:05:04 10° W 21:09:10 58° N 21:13:16 10° ENE
Meteor 1-21 4.3 21:07:51 19° S 21:11:51 61° E 21:17:23 10° NNE
COSMOS 2455 4.0 21:09:45 19° SE 21:12:03 24° ESE 21:16:46 10° NE
STARLINK-1201 4.3 21:08:04 10° WNW 21:12:10 56° N 21:16:15 10° E
Cosmos 1378 4.2 21:09:48 10° SSW 21:13:20 42° WNW 21:16:55 10° N
STARLINK-1240 4.3 21:10:03 10° W 21:14:08 56° N 21:18:15 10° ENE
USA 215 3.7 21:08:13 10° E 21:14:40 62° NNE 21:21:07 10° WNW
Cosmos 1486 Rocket 4.0 21:09:30 10° NNW 21:14:50 87° WSW 21:18:13 23° SSE
Cosmos 1833 4.4 21:09:41 10° NNW 21:15:20 68° ENE 21:19:13 21° SE
Cosmos 1302 Rocket 4.0 21:10:16 10° SSW 21:15:34 87° ESE 21:20:55 10° NNE
Cosmos 1271 Rocket 3.3 21:14:22 26° SSE 21:16:00 41° E 21:19:43 10° NNE
Cosmos 1544 Rocket 3.5 21:11:51 10° N 21:16:12 77° E 21:18:39 25° SSE
STARLINK-1206 4.2 21:13:04 10° WNW 21:17:11 57° N 21:21:16 10° E
Cosmos 1242 Rocket 2.7 21:15:26 28° S 21:17:11 60° E 21:20:50 10° NNE
MTI 3.7 21:14:05 10° N 21:17:15 78° WNW 21:18:58 24° SSW
Spot 4 4.5 21:14:22 20° SE 21:17:23 47° ENE 21:22:03 10° N
STARLINK-1203 4.4 21:14:54 10° W 21:19:03 56° N 21:23:12 10° ENE
STARLINK-1216 4.3 21:15:03 10° W 21:19:08 56° N 21:23:13 10° ENE
STARLINK-60 3.4 21:20:10 36° SSE 21:20:31 38° SE 21:23:30 10° ENE
Cosmos 1092 Rocket 4.2 21:15:30 10° SSW 21:21:35 69° WNW 21:27:44 10° N
STARLINK-1205 4.2 21:18:03 10° WNW 21:22:09 59° N 21:26:16 10° E
NOSS 2-2 (D) 4.0 21:19:35 10° WSW 21:23:08 54° NW 21:27:17 10° NE
STARLINK-1237 4.4 21:20:03 10° W 21:24:08 55° N 21:28:13 10° ENE
CENTAUR R/B 3.2 21:16:31 10° NW 21:24:30 83° SW 21:31:08 20° SE
Cosmos 1707 3.3 21:24:35 29° SE 21:26:05 43° E 21:29:48 10° NNE
STARLINK-1218 4.1 21:23:03 10° WNW 21:27:10 60° NNE 21:31:17 10° E
ATLAS 3B R/B 3.1 21:21:03 10° NW 21:27:46 62° NE 21:33:56 13° ESE
SL-27 R/B 3.2 21:24:29 10° NNW 21:27:56 45° WSW 21:29:28 27° SSW
STARLINK-1202 4.4 21:25:04 10° W 21:29:09 54° N 21:33:13 10° ENE
NOSS 3-2 (C) 4.1 21:22:15 10° NW 21:29:41 72° SW 21:35:37 21° SSE
Cosmos 1726 3.0 21:27:50 10° N 21:31:20 38° ENE 21:32:50 26° ESE
STARLINK-1254 4.1 21:28:02 10° WNW 21:32:09 62° NNE 21:36:16 10° E
ALOS 2 3.8 21:30:24 18° ESE 21:32:54 32° ENE 21:36:49 10° N
Cosmos 1867 3.6 21:29:07 10° NW 21:34:37 84° NE 21:38:07 23° SE
COSMOS 2487 3.3 21:32:18 10° N 21:35:38 40° ENE 21:37:03 26° ESE
STARLINK-1231 4.0 21:33:00 10° WNW 21:37:08 63° NNE 21:41:15 10° E
Cosmos 1943 Rocket 2.5 21:33:28 10° SW 21:38:59 65° WNW 21:44:36 10° NNE
Cosmos 1992 Rocket 4.1 21:36:08 24° S 21:39:07 59° ESE 21:44:15 10° NNE
STARLINK-1246 4.4 21:35:05 10° W 21:39:09 53° N 21:43:14 10° ENE
NOSS 3-4 (A) 3.6 21:36:31 20° S 21:40:31 50° ESE 21:46:37 10° NE
NOSS 3-4 (C) 3.6 21:36:40 20° S 21:40:38 50° ESE 21:46:43 10° NE
STARLINK-1232 4.0 21:38:00 10° WNW 21:42:09 65° NNE 21:46:16 10° E
SeaSat 1 2.8 21:37:29 10° NE 21:42:16 47° ESE 21:44:34 27° S
EO 1 Del DPAF 3.2 21:39:17 10° NNE 21:43:04 63° ESE 21:44:29 35° S
STARLINK-1224 4.4 21:40:04 10° W 21:44:09 53° N 21:48:13 10° ENE
STARLINK-1208 3.9 21:42:58 10° WNW 21:47:07 67° NNE 21:51:15 10° E
Cosmos 1975 Rocket 4.3 21:44:36 12° SW 21:48:25 39° WNW 21:52:34 10° N
STARLINK-1225 4.4 21:45:05 10° W 21:49:09 53° N 21:53:13 10° ENE
STARLINK-1212 2.7 21:47:09 10° WNW 21:50:14 68° SSW 21:50:47 53° SSE
STARLINK-29 4.4 21:51:41 24° E 21:51:41 24° E 21:53:21 10° ENE
STARLINK-1105 2.7 21:47:37 10° WNW 21:50:43 67° SSW 21:51:13 54° SSE
Meteor 2-10 3.9 21:46:02 10° N 21:51:07 83° E 21:53:43 29° SSE
STARLINK-1247 2.8 21:48:29 10° WNW 21:51:36 66° SSW 21:52:06 54° SSE
STARLINK-1227 2.8 21:48:59 10° WNW 21:52:05 66° SSW 21:52:33 55° SSE
STARLINK-1271 3.9 21:47:59 10° WNW 21:52:08 70° NNE 21:56:13 10° E
Cosmos 292 Rocket 4.0 21:48:20 16° SSW 21:52:09 73° WNW 21:57:02 10° NNE
BREEZE-M DEB (TANK) 3.1 21:41:07 10° WSW 21:52:43 81° S 21:56:05 10° E
STARLINK-1226 2.8 21:49:51 10° WNW 21:52:57 65° SSW 21:53:24 55° SSE
BREEZE-M DEB (TANK) 2.8 21:49:40 10° W 21:53:21 77° SSW 21:57:32 10° ESE
STARLINK-1215 2.8 21:50:44 10° WNW 21:53:51 64° SSW 21:54:16 55° SSE
STARLINK-1230 4.4 21:50:04 10° WNW 21:54:09 53° N 21:58:13 10° ENE
RESURS DK-1 4.0 21:53:57 19° ESE 21:54:14 19° ESE 21:57:10 10° ENE
S3M 4.0 21:48:14 10° N 21:54:26 88° W 21:58:10 26° S
Cosmos 2227 Rocket 4.3 21:50:13 10° N 21:54:38 22° NE 21:59:02 10° E
Cosmos 2369 Rocket 2.5 21:49:31 10° SW 21:55:10 67° WNW 22:00:49 10° NNE
STARLINK-1217 2.8 21:52:34 10° WNW 21:55:39 62° SSW 21:56:00 56° S
STARLINK-1229 2.8 21:53:28 10° WNW 21:56:34 61° SSW 21:56:54 56° S
STARLINK-1154 3.8 21:52:58 10° WNW 21:57:07 72° NNE 22:01:00 12° ESE
STARLINK-1270 2.8 21:54:22 10° WNW 21:57:28 60° SSW 21:57:45 56° S
STARLINK-1243 4.4 21:55:05 10° WNW 21:59:09 53° N 22:03:14 10° E
STARLINK-1189 2.8 21:56:10 10° WNW 21:59:15 59° SSW 21:59:29 56° S
STARLINK-1188 2.8 21:57:05 10° WNW 22:00:10 58° SSW 22:00:22 56° S
Cosmos 1340 Rocket 2.8 21:56:53 10° N 22:00:57 79° ENE 22:02:31 37° SSE
ATLAS CENTAUR R/B 1.6 21:59:35 34° S 22:01:01 49° SE 22:05:01 10° NE
STARLINK-1187 3.0 21:58:11 10° WNW 22:01:13 51° SSW 22:01:14 51° SSW
STARLINK-1197 3.7 21:57:55 10° WNW 22:02:05 75° NNE 22:05:46 13° ESE
Cosmos 1626 4.4 22:01:28 12° E 22:02:20 13° E 22:04:08 10° NE
STARLINK-1191 2.9 21:59:32 10° WNW 22:02:35 55° SSW 22:02:39 55° SSW
Aureole 3 3.1 21:59:38 10° N 22:02:49 51° ENE 22:03:24 43° ESE
STARLINK-1221 2.9 22:00:29 10° WNW 22:03:32 54° SSW 22:03:34 54° SSW
Thor Agena Rocket 3.6 21:58:30 10° NNE 22:03:49 82° WNW 22:07:12 23° SSW
STARLINK-1236 4.4 22:00:04 10° WNW 22:04:09 53° N 22:08:13 10° E
STARLINK-1222 2.9 22:01:19 10° WNW 22:04:22 54° SSW 22:04:23 54° SSW
Cosmos 1025 Rocket 3.1 22:02:57 28° SSW 22:05:09 70° WNW 22:09:28 10° N
STARLINK-1214 3.0 22:02:14 10° WNW 22:05:15 53° SSW 22:05:15 53° SSW
Cosmos 1908 3.9 22:02:21 10° N 22:06:02 44° ENE 22:07:21 31° SE
EXPRESS MD2 4.4 22:02:33 10° W 22:06:54 88° N 22:16:17 10° E
STARLINK-1198 3.7 22:02:54 10° WNW 22:07:04 78° NNE 22:10:32 14° ESE
Meteor 2-19 Rocket 4.5 22:03:37 27° S 22:07:08 71° E 22:13:13 10° NNE
Cosmos 1553 Rocket 4.4 22:01:43 10° NNW 22:07:49 55° W 22:11:43 22° SSW
Cosmos 1656 Rocket 3.6 22:04:50 21° SSW 22:08:44 86° ESE 22:14:20 10° NNE
ATLAS 2AS CENTAUR R/B 3.0 22:00:49 10° SSW 22:08:48 79° SE 22:16:45 10° NE
BREEZE M DEB (TANK) 1.9 22:06:13 10° W 22:08:33 58° W 22:08:33 58° W
Cosmos 1953 2.3 22:05:15 10° NNW 22:09:15 72° W 22:10:41 38° S
Cosmos 1470 4.1 22:06:45 10° NNW 22:10:12 31° W 22:11:51 22° SW
BREEZE-M DEB (TANK) 4.0 21:59:32 10° WNW 22:10:16 45° SW 22:11:56 32° S
STARLINK-1228 3.6 22:07:45 10° WNW 22:11:05 41° SSW 22:11:08 41° SSW
STARLINK-1199 3.6 22:07:54 10° WNW 22:12:04 81° NNE 22:15:20 16° ESE
STARLINK-1235 3.7 22:10:28 10° WNW 22:13:12 38° SW 22:13:12 38° SW
STARLINK-1269 4.4 22:10:04 10° WNW 22:14:09 54° N 22:18:13 10° E
Cosmos 2292 Rocket 3.0 22:13:24 45° SSE 22:14:19 68° E 22:17:29 10° NNE
Cosmos 968 Rocket 4.4 22:10:29 10° NW 22:15:09 36° WSW 22:17:31 23° SSW
STARLINK-1210 3.6 22:12:52 10° WNW 22:17:02 85° NNE 22:20:06 18° ESE
KORONAS-FOTON 4.3 22:17:21 36° SE 22:18:19 45° E 22:22:01 10° NNE
Cosmos 1655 Rocket 4.1 22:15:01 23° SSW 22:19:04 75° W 22:25:23 10° N
STARLINK-1200 4.4 22:15:02 10° WNW 22:19:07 54° N 22:23:12 10° E
SL-4 R/B 1.6 22:20:18 43° NW 22:20:18 43° NW 22:21:56 10° NNW
Cosmos 1777 Rocket 4.2 22:15:11 10° NNW 22:20:26 69° ENE 22:23:19 27° SE
STARLINK-1219 3.5 22:17:50 10° WNW 22:22:01 88° NNE 22:24:52 19° ESE
ATLAS 5 CENTAUR R/B 1.0 22:21:46 29° SW 22:23:19 81° SE 22:25:29 10° NE
STARLINK-1192 4.3 22:20:03 10° WNW 22:24:09 55° N 22:28:13 10° E
STARLINK-52 3.1 22:26:27 53° ESE 22:26:27 53° ESE 22:29:18 10° ENE
Terra 4.2 22:24:08 10° WSW 22:26:29 14° W 22:28:50 10° WNW
Cosmos 1892 Rocket 4.5 22:25:06 28° SE 22:26:33 36° E 22:30:33 10° NNE
STARLINK-1211 3.5 22:22:50 10° WNW 22:27:00 88° SSW 22:29:40 22° ESE
Cosmos 2228 3.0 22:22:46 10° N 22:27:01 70° ENE 22:28:36 37° SSE
Meteor 2-15 4.4 22:21:37 10° NNW 22:27:47 80° W 22:31:06 29° S
Cosmos 1726 Rocket 3.8 22:23:30 10° N 22:27:47 58° ENE 22:29:31 33° SE
SL-4 R/B 2.3 22:23:06 10° WSW 22:27:56 80° SSE 22:32:47 10° ENE
STARLINK-1244 4.3 22:25:02 10° WNW 22:29:07 56° N 22:33:13 10° E
STARLINK-1245 3.5 22:27:48 10° WNW 22:31:58 84° SSW 22:34:26 24° ESE
Cosmos 1300 4.1 22:28:36 10° N 22:32:01 30° ENE 22:33:33 22° ESE
Cosmos 921 Rocket 4.1 22:31:51 26° SE 22:32:55 29° E 22:36:41 10° NE
In-Cosmos 22 4.1 22:30:05 28° SSW 22:32:55 78° WNW 22:38:14 10° N
YAOGAN 11 4.5 22:31:51 29° SE 22:33:49 55° ENE 22:38:03 10° N
STARLINK-1138 4.3 22:30:02 10° WNW 22:34:07 57° N 22:38:13 10° E
Meteor 1-24 Rocket 4.4 22:33:05 26° SE 22:35:28 40° E 22:40:33 10° NNE
STARLINK-1233 3.5 22:32:46 10° WNW 22:36:56 80° SSW 22:39:11 26° ESE
Cosmos 2266 Rocket 4.0 22:33:43 26° SSW 22:37:21 74° W 22:43:24 10° N
CZ-4C R/B 4.2 22:36:25 10° ESE 22:37:27 11° ESE 22:38:31 10° E
STARLINK-1143 4.2 22:35:00 10° WNW 22:39:06 58° N 22:43:12 10° E
STARLINK-1204 3.5 22:37:45 10° WNW 22:41:55 76° SSW 22:43:59 28° SE
SJ 16-02 3.2 22:39:48 10° N 22:43:31 26° NE 22:47:11 10° ESE
STARLINK-1241 4.2 22:40:02 10° WNW 22:44:08 59° N 22:48:14 10° E
STARLINK-1374 4.5 22:45:33 28° ESE 22:45:33 28° ESE 22:48:09 10° E
STARLINK-1238 3.5 22:42:46 10° WNW 22:46:55 71° SSW 22:48:47 31° SE
Helios 1B rocket 3.8 22:45:23 10° NE 22:48:57 28° E 22:50:09 24° SE
STARLINK-1239 4.1 22:45:00 10° WNW 22:49:07 61° NNE 22:53:14 10° E
Cosmos 1674 2.7 22:48:20 43° SSW 22:49:26 73° W 22:53:14 10° N
STARLINK-1377 4.2 22:52:00 33° SE 22:52:00 33° SE 22:54:57 10° ENE
STARLINK-1201 3.5 22:47:44 10° WNW 22:51:52 67° SSW 22:53:33 34° SE
STARLINK-1240 4.1 22:49:57 10° WNW 22:54:05 63° NNE 22:58:13 10° E
STARLINK-1353 4.1 22:55:17 35° SE 22:55:17 35° SE 22:58:22 10° ENE
STARLINK-60 3.5 22:53:23 10° W 22:56:33 58° NNW 22:59:43 10° ENE
STARLINK-1206 3.5 22:52:44 10° WNW 22:56:51 63° SSW 22:58:21 36° SE
COSMOS 2455 3.0 22:52:50 18° SW 22:57:25 74° NW 23:03:29 10° NNE
USA 215 3.3 22:52:56 19° SE 22:57:43 63° SW 23:04:13 10° WNW
STARLINK-1375 4.0 22:58:33 38° SE 22:58:33 38° SE 23:01:48 10° ENE
Cosmos 2219 3.5 22:52:38 10° NNW 22:58:17 65° ENE 23:02:17 20° SE
STARLINK-1216 4.0 22:54:57 10° WNW 22:59:04 64° NNE 23:03:12 10° E
STARLINK-1203 4.0 22:55:02 10° WNW 22:59:12 65° NNE 23:03:24 10° E
STARLINK-1352 3.9 23:01:56 37° SE 23:01:56 37° SE 23:04:56 10° ENE
STARLINK-1350 3.9 23:01:49 40° SE 23:01:49 40° SE 23:05:13 10° ENE
STARLINK-1205 3.6 22:57:43 10° WNW 23:01:49 59° SSW 23:03:07 38° SSE
Cosmos 2297 Rocket 2.7 22:56:57 10° NNW 23:02:34 58° ENE 23:07:00 16° SE
Helios 1A 3.1 23:01:35 39° SSW 23:02:55 60° WSW 23:07:05 10° NNW
STARLINK-1237 4.0 22:59:56 10° WNW 23:04:04 67° NNE 23:08:12 10° E
Lacrosse 4 Rocket 3.4 23:02:29 10° NNW 23:06:15 27° NE 23:09:55 10° ESE
Cosmos 1726 4.1 23:03:40 10° NW 23:06:17 18° W 23:07:20 16° WSW
PSLV R/B 4.3 23:02:00 10° NNE 23:06:19 42° E 23:07:53 30° SE
STARLINK-1218 3.6 23:02:43 10° WNW 23:06:48 56° SSW 23:07:55 41° SSE
STARLINK-1368 3.6 23:08:27 45° SSE 23:08:32 45° SSE 23:12:10 10° ENE
STARLINK-1202 3.9 23:04:55 10° WNW 23:09:04 69° NNE 23:13:12 10° E
ALOS 2 3.7 23:07:47 26° SW 23:09:13 31° W 23:13:10 10° NNW
Timation 2 Rocket 4.1 23:03:41 10° NW 23:09:53 60° WSW 23:12:54 30° S
Cosmos 2058 Rocket 3.0 23:05:50 10° NNW 23:10:17 81° W 23:11:58 38° S
COSMOS 2487 4.5 23:08:09 10° WNW 23:10:21 16° W 23:10:32 16° WSW
Cosmos 1455 4.4 23:07:41 10° NNE 23:10:22 18° ENE 23:12:54 11° ESE
STARLINK-1254 3.7 23:07:42 10° WNW 23:11:45 52° SSW 23:12:41 42° SSE
STARLINK-1369 3.6 23:11:47 47° SSE 23:12:01 47° SSE 23:15:40 10° ENE
Cosmos 1898 Rocket 4.5 23:07:53 10° NNW 23:13:01 44° ENE 23:17:36 12° SE
Meteor 1-29 4.3 23:10:16 10° NE 23:13:11 26° E 23:13:48 25° ESE
Cosmos 1626 Rocket 4.4 23:11:50 27° SE 23:13:29 38° E 23:17:32 10° NNE
CENTAUR R/B 4.3 23:08:06 10° WNW 23:14:33 26° WSW 23:18:17 19° SW
STARLINK-1372 3.5 23:15:07 48° S 23:15:29 50° SSE 23:19:10 10° ENE
STARLINK-1231 3.8 23:12:41 10° WNW 23:16:42 49° SSW 23:17:27 43° S
Starlink 7 placeholder 4.4 23:17:57 20° NE 23:17:57 20° NE 23:18:52 10° ENE
Meteor 2-5 Rocket 3.7 23:14:12 30° SSW 23:17:05 76° WNW 23:22:46 10° N
ATLAS 3B R/B 3.3 23:12:03 10° NW 23:18:14 38° WSW 23:21:10 27° SSW
STARLINK-1378 3.5 23:18:28 48° S 23:18:57 53° SSE 23:22:40 10° ENE
STARLINK-1246 3.8 23:14:54 10° WNW 23:19:03 74° NNE 23:23:12 10° ESE
SeaSat 1 3.8 23:15:13 10° NNE 23:19:40 35° NW 23:24:07 10° WSW
SL-14 R/B 3.1 23:19:11 45° S 23:20:19 89° ENE 23:24:11 10° N
FALCON 9 DEB 3.0 23:20:07 33° WSW 23:21:32 88° NNW 23:25:00 10° ENE
STARLINK-1232 3.9 23:17:42 10° WNW 23:21:40 45° SW 23:22:15 42° S
STARLINK-1379 3.4 23:21:51 48° S 23:22:28 55° SSE 23:26:12 10° ENE
STARLINK-1329 3.4 23:23:14 48° SSW 23:23:54 56° SSE 23:27:40 10° ENE
STARLINK-1224 3.7 23:19:52 10° WNW 23:24:02 77° NNE 23:28:11 10° ESE
Meteor 2-21 4.5 23:20:59 28° SSW 23:24:24 78° W 23:30:39 10° N
SL-16 R/B 3.9 23:20:44 10° ESE 23:26:11 34° ENE 23:31:40 10° N
STARLINK-29 3.4 23:24:02 16° W 23:26:26 61° NNW 23:29:37 10° ENE
STARLINK-1208 3.9 23:22:40 10° WNW 23:26:36 42° SW 23:27:00 41° SSW
STARLINK-1362 3.4 23:26:40 46° SSW 23:27:29 59° SSE 23:31:15 10° ENE
ATLAS CENTAUR R/B 1.1 23:26:28 10° NW 23:28:44 90° SSW 23:33:12 10° SE
STARLINK-1225 3.7 23:24:52 10° WNW 23:29:02 80° NNE 23:33:11 10° ESE
Cosmos 1656 4.3 23:27:53 27° SSE 23:30:27 45° ESE 23:35:46 10° NE
STARLINK-1373 3.3 23:30:05 44° SSW 23:31:03 62° SSE 23:34:51 10° ENE
NOSS 3-4 (A) 4.4 23:25:42 10° WSW 23:31:31 46° NW 23:37:49 10° NE
STARLINK-1271 4.0 23:27:42 10° WNW 23:31:35 40° SW 23:31:49 39° SSW
NOSS 3-4 (C) 4.4 23:25:47 10° WSW 23:31:36 47° NW 23:37:55 10° NE
RESURS DK-1 2.9 23:29:48 26° WSW 23:31:53 54° NW 23:35:58 10° NNE
STARLINK-1365 3.3 23:31:12 42° SW 23:32:17 65° SSE 23:36:06 10° ENE
STARLINK-1230 3.6 23:29:50 10° WNW 23:34:00 84° NNE 23:38:09 10° ESE
STARLINK-1390 3.3 23:33:35 42° SW 23:34:40 65° SSE 23:38:28 10° ENE
Cosmos 1697 Rocket 4.0 23:32:47 19° SE 23:35:31 29° ESE 23:40:18 10° NE
Cosmos 2084 3.6 23:33:37 26° SW 23:36:06 74° NW 23:40:35 10° NE
STARLINK-1154 4.1 23:32:42 10° WNW 23:36:32 37° SW 23:36:35 37° SW
Cosmos 1812 Rocket 4.0 23:32:06 10° N 23:36:33 59° ENE 23:38:55 26° SSE
Cosmos 1626 2.5 23:36:00 37° SW 23:37:08 54° WNW 23:40:49 10° N
BREEZE-M R/B 3.4 23:31:45 13° SW 23:37:37 53° SSE 23:41:05 10° E
STARLINK-1243 3.6 23:34:50 10° WNW 23:39:00 87° NNE 23:43:09 10° ESE
Cosmos 990 Rocket 4.2 23:34:04 10° NNW 23:39:21 70° ENE 23:43:09 19° SE
Cosmos 2227 Rocket 2.2 23:33:47 10° NNW 23:39:31 89° ENE 23:43:29 21° SSE
Okean 1-7 Rocket 4.0 23:37:39 30° SW 23:39:36 54° WNW 23:44:05 10° N
ATLAS CENTAUR R/B 3.1 23:36:19 10° W 23:40:06 29° NW 23:43:40 10° NNE
STARLINK-1197 4.3 23:37:41 10° WNW 23:41:21 34° SW 23:41:21 34° SW
CZ-4 R/B 3.8 23:36:49 10° NNE 23:41:38 83° WNW 23:43:50 32° SSW
STARLINK-1236 3.5 23:39:48 10° WNW 23:43:58 89° S 23:48:07 10° ESE
STARLINK-1198 4.4 23:42:42 10° WNW 23:46:08 32° SW 23:46:08 32° SW
Cosmos 1602 Rocket 3.6 23:47:23 33° S 23:49:13 68° E 23:53:33 10° NNE
SL-08 ROCKET BODY 4.3 23:46:46 28° S 23:50:04 84° E 23:55:57 10° N
Cosmos 2285 Rocket 4.5 23:46:51 10° NNW 23:53:11 60° ENE 23:59:26 10° SE
STARLINK-1269 3.5 23:49:46 10° WNW 23:53:56 81° SSW 23:58:05 10° ESE
